| time (UTC) | temp C | wind direction | speed KPH | gust KPH | rain 1hr cm | rain 24hr cm | rain mn cm | humidity % | barometer mb |
| 20260510054522 | 11 | 225 | 0.0 | 0.0 | 4.93 | 8.64 | 4.88 | 95 | 1011.7 |
| 20260510053020 | 11 | 225 | 0.0 | 0.0 | 4.98 | 8.64 | 4.88 | 94 | 1011.7 |
| 20260510051519 | 11 | 225 | 0.0 | 0.0 | 6.96 | 8.61 | 4.65 | 94 | 1011.6 |
| 20260510050115 | 11 | 225 | 0.0 | 0.0 | 8.94 | 8.15 | 0.00 | 93 | 1011.5 |
| 20260510044529 | 12 | 225 | 0.0 | 0.0 | 8.92 | 8.15 | 8.13 | 92 | 1011.3 |
| 20260510043007 | 12 | 225 | 0.0 | 0.0 | 8.92 | 8.13 | 8.13 | 92 | 1011.4 |
| 20260510041505 | 12 | 225 | 0.0 | 0.0 | 6.10 | 7.85 | 7.85 | 91 | 1011.5 |
| 20260510040005 | 12 | 225 | 0.0 | 0.0 | 0.05 | 7.26 | 7.24 | 91 | 1011.5 |
| 20260510034505 | 13 | 225 | 0.0 | 0.0 | 0.05 | 7.42 | 7.24 | 90 | 1011.5 |
| 20260510033005 | 13 | 225 | 0.0 | 0.0 | 0.00 | 7.42 | 7.24 | 89 | 1011.5 |
| 20260510031504 | 13 | 225 | 0.0 | 0.0 | 0.00 | 7.42 | 7.24 | 88 | 1011.5 |
| 20260510030001 | 14 | 225 | 0.0 | 0.0 | 0.00 | 7.42 | 7.24 | 86 | 1011.3 |
| 20260510024600 | 14 | 225 | 0.0 | 0.0 | 0.00 | 7.42 | 7.24 | 86 | 1011.2 |
| 20260510023057 | 15 | 225 | 0.0 | 0.0 | 0.00 | 7.42 | 7.24 | 84 | 1011.0 |
| 20260510021555 | 15 | 225 | 0.0 | 0.0 | 0.00 | 7.42 | 7.24 | 81 | 1010.7 |
| 20260510020053 | 16 | 225 | 0.0 | 0.0 | 0.00 | 7.42 | 7.24 | 80 | 1010.5 |
| 20260510014558 | 16 | 225 | 0.0 | 0.0 | 0.00 | 7.82 | 7.24 | 78 | 1010.1 |
| 20260510013048 | 17 | 225 | 0.0 | 0.0 | 0.00 | 7.82 | 7.24 | 78 | 1010.0 |
| 20260510011547 | 18 | 225 | 0.0 | 0.0 | 0.00 | 7.82 | 7.24 | 76 | 1009.9 |
| 20260510010045 | 19 | 225 | 0.0 | 0.0 | 0.00 | 7.82 | 7.24 | 72 | 1009.8 |
| 20260510004545 | 20 | 225 | 0.0 | 0.0 | 0.00 | 11.40 | 7.24 | 69 | 1009.7 |
| 20260510003050 | 21 | 225 | 0.0 | 0.0 | 0.00 | 11.40 | 7.24 | 66 | 1009.6 |
| 20260510001543 | 22 | 225 | 0.0 | 0.0 | 0.00 | 11.40 | 7.24 | 62 | 1009.3 |
| 20260510000052 | 22 | 225 | 0.0 | 0.0 | 0.00 | 11.40 | 7.24 | 58 | 1009.3 |
| 20260509234554 | 23 | 225 | 0.0 | 0.0 | 0.00 | 14.96 | 7.24 | 55 | 1009.3 |
| 20260509233046 | 23 | 225 | 0.0 | 3.2 | 0.00 | 14.96 | 7.24 | 52 | 1009.1 |
| 20260509231541 | 24 | 226 | 0.0 | 0.0 | 0.00 | 14.96 | 7.24 | 57 | 1009.0 |
| 20260509230041 | 25 | 226 | 0.0 | 0.0 | 0.00 | 14.96 | 7.24 | 51 | 1008.9 |
| 20260509224540 | 25 | 226 | 0.0 | 0.0 | 0.00 | 18.52 | 7.24 | 53 | 1008.9 |
| 20260509223045 | 26 | 227 | 0.0 | 4.8 | 0.00 | 18.52 | 7.24 | 43 | 1009.0 |
| 20260509221538 | 26 | 165 | 0.0 | 3.2 | 0.00 | 18.52 | 7.24 | 47 | 1008.8 |
| 20260509220037 | 26 | 192 | 0.0 | 3.2 | 0.00 | 18.52 | 7.24 | 43 | 1008.9 |
| 20260509214536 | 26 | 259 | 1.6 | 6.4 | 0.00 | 21.69 | 7.24 | 46 | 1008.9 |
| 20260509213034 | 26 | 206 | 0.0 | 4.8 | 0.00 | 21.69 | 7.24 | 49 | 1008.8 |
| 20260509211532 | 26 | 207 | 0.0 | 4.8 | 0.00 | 21.69 | 7.24 | 46 | 1008.8 |
| 20260509210035 | 26 | 274 | 0.0 | 8.0 | 0.00 | 21.69 | 7.24 | 49 | 1008.7 |
| 20260509204531 | 26 | 207 | 0.0 | 4.8 | 0.00 | 22.48 | 7.24 | 47 | 1008.8 |
| 20260509203029 | 26 | 217 | 0.0 | 8.0 | 0.00 | 22.48 | 7.24 | 50 | 1008.8 |
| 20260509201524 | 25 | 292 | 1.6 | 6.4 | 0.00 | 22.48 | 7.24 | 49 | 1008.8 |
| 20260509200023 | 25 | 307 | 0.0 | 3.2 | 0.00 | 22.48 | 7.24 | 52 | 1009.0 |
| 20260509194522 | 25 | 290 | 0.0 | 3.2 | 0.00 | 22.48 | 7.24 | 53 | 1009.1 |
| 20260509193027 | 25 | 173 | 0.0 | 8.0 | 0.00 | 22.48 | 7.24 | 56 | 1009.2 |
| 20260509191519 | 25 | 159 | 1.6 | 4.8 | 0.00 | 22.48 | 7.24 | 58 | 1009.4 |
| 20260509190022 | 25 | 164 | 0.0 | 6.4 | 0.00 | 22.48 | 7.24 | 55 | 1009.6 |
| 20260509184520 | 25 | 277 | 0.0 | 4.8 | 0.00 | 22.56 | 7.24 | 56 | 1009.7 |
| 20260509183014 | 24 | 290 | 0.0 | 6.4 | 0.00 | 22.56 | 7.24 | 58 | 1009.8 |
| 20260509181514 | 24 | 284 | 0.0 | 4.8 | 0.00 | 22.56 | 7.24 | 60 | 1009.7 |
| 20260509180010 | 23 | 261 | 0.0 | 6.4 | 0.00 | 22.56 | 7.24 | 57 | 1009.6 |
| 20260509174512 | 23 | 257 | 0.0 | 4.8 | 0.00 | 24.77 | 7.24 | 59 | 1009.6 |
| 20260509173003 | 23 | 275 | 0.0 | 6.4 | 0.00 | 24.77 | 7.24 | 61 | 1009.7 |
| 20260509171627 | 23 | 311 | 0.0 | 6.4 | 0.00 | 24.77 | 7.24 | 63 | 1009.7 |
| 20260509170057 | 22 | 277 | 0.0 | 4.8 | 0.00 | 24.77 | 7.24 | 65 | 1009.6 |
| 20260509164553 | 22 | 300 | 0.0 | 6.4 | 0.00 | 25.30 | 7.24 | 63 | 1009.7 |
| 20260509163051 | 22 | 238 | 0.0 | 4.8 | 0.00 | 25.30 | 7.24 | 65 | 1009.7 |
| 20260509161549 | 22 | 276 | 0.0 | 6.4 | 0.00 | 25.30 | 7.24 | 66 | 1009.6 |
| 20260509160042 | 21 | 288 | 0.0 | 6.4 | 0.00 | 25.30 | 7.24 | 67 | 1009.6 |
| 20260509154538 | 21 | 285 | 0.0 | 4.8 | 0.97 | 25.32 | 7.24 | 70 | 1009.5 |
| 20260509153037 | 20 | 287 | 0.0 | 6.4 | 3.78 | 25.32 | 7.24 | 72 | 1009.6 |
| 20260509151533 | 20 | 290 | 1.6 | 8.0 | 3.81 | 25.32 | 7.24 | 74 | 1009.6 |
| 20260509150030 | 19 | 286 | 0.0 | 4.8 | 3.81 | 25.32 | 7.24 | 75 | 1009.4 |
| 20260509144528 | 18 | 209 | 0.0 | 3.2 | 2.62 | 2.57 | 7.11 | 82 | 1009.3 |
| 20260509143025 | 17 | 209 | 1.6 | 6.4 | 0.03 | 2.54 | 6.86 | 82 | 1009.2 |
| 20260509141523 | 16 | 206 | 0.0 | 6.4 | 0.00 | 2.54 | 6.86 | 85 | 1009.3 |
| 20260509140014 | 16 | 207 | 1.6 | 8.0 | 0.00 | 2.54 | 6.86 | 87 | 1009.3 |
| 20260509134509 | 15 | 194 | 0.0 | 1.6 | 0.23 | 2.54 | 6.86 | 89 | 1009.2 |
| 20260509133007 | 15 | 196 | 1.6 | 9.7 | 2.92 | 2.54 | 6.86 | 88 | 1009.3 |
| 20260509131507 | 15 | 195 | 0.0 | 4.8 | 3.81 | 2.54 | 6.86 | 89 | 1009.4 |
| 20260509130005 | 14 | 178 | 0.0 | 4.8 | 3.81 | 2.54 | 6.86 | 90 | 1009.3 |
| 20260509124503 | 13 | 163 | 0.0 | 4.8 | 3.58 | 2.54 | 6.83 | 91 | 1009.2 |
| 20260509123002 | 13 | 136 | 0.0 | 6.4 | 0.25 | 25.27 | 6.50 | 93 | 1009.3 |
| 20260509121606 | 13 | 147 | 0.0 | 6.4 | 0.00 | 25.25 | 6.48 | 94 | 1009.3 |
| 20260509120108 | 12 | 144 | 0.0 | 0.0 | 0.30 | 25.25 | 6.48 | 94 | 1009.2 |
| 20260509114603 | 12 | 144 | 0.0 | 0.0 | 1.22 | 25.25 | 6.48 | 93 | 1008.8 |
| 20260509113056 | 12 | 144 | 0.0 | 1.6 | 1.22 | 25.25 | 6.48 | 93 | 1008.5 |
| 20260509111554 | 12 | 151 | 0.0 | 0.0 | 1.22 | 25.25 | 6.48 | 93 | 1008.4 |
| 20260509110053 | 12 | 151 | 0.0 | 0.0 | 0.91 | 25.20 | 6.45 | 92 | 1008.2 |
| 20260509104552 | 12 | 151 | 0.0 | 0.0 | 0.00 | 25.12 | 6.35 | 92 | 1007.8 |
| 20260509103049 | 12 | 151 | 0.0 | 1.6 | 0.00 | 25.12 | 6.35 | 91 | 1007.9 |
| 20260509101551 | 12 | 191 | 0.0 | 3.2 | 0.00 | 25.12 | 6.35 | 91 | 1008.0 |
| 20260509100055 | 12 | 194 | 0.0 | 9.7 | 0.00 | 25.12 | 6.35 | 90 | 1008.0 |
| 20260509094552 | 12 | 147 | 0.0 | 3.2 | 0.00 | 25.12 | 6.35 | 90 | 1007.9 |
| 20260509093046 | 12 | 147 | 0.0 | 1.6 | 0.08 | 25.12 | 6.35 | 90 | 1008.0 |
| 20260509091546 | 12 | 147 | 0.0 | 1.6 | 0.08 | 25.12 | 6.35 | 89 | 1008.0 |
| 20260509090046 | 13 | 147 | 0.0 | 0.0 | 4.45 | 25.12 | 6.35 | 88 | 1008.0 |
| 20260509084542 | 13 | 147 | 0.0 | 0.0 | 11.18 | 25.12 | 6.35 | 87 | 1008.3 |
| 20260509083042 | 13 | 147 | 0.0 | 1.6 | 12.24 | 25.10 | 6.35 | 86 | 1008.5 |
| 20260509081545 | 13 | 147 | 0.0 | 3.2 | 19.10 | 25.10 | 6.35 | 85 | 1008.4 |
| 20260509080041 | 13 | 147 | 0.0 | 3.2 | 18.52 | 24.64 | 5.89 | 84 | 1008.2 |
| 20260509074538 | 14 | 157 | 0.0 | 4.8 | 19.81 | 24.00 | 5.23 | 84 | 1008.2 |
| 20260509073034 | 14 | 144 | 1.6 | 6.4 | 2.72 | 23.85 | 5.11 | 83 | 1008.3 |
| 20260509071535 | 14 | 206 | 0.0 | 6.4 | 2.90 | 23.16 | 4.39 | 82 | 1008.2 |
| 20260509070031 | 14 | 187 | 0.0 | 4.8 | 3.17 | 22.78 | 4.01 | 82 | 1008.3 |
| 20260509064529 | 14 | 137 | 0.0 | 4.8 | 2.84 | 24.64 | 3.23 | 82 | 1008.5 |
| 20260509063026 | 14 | 164 | 0.0 | 4.8 | 23.50 | 23.72 | 23.52 | 82 | 1009.0 |
| 20260509061525 | 14 | 180 | 0.0 | 11.3 | 14.86 | 22.86 | 14.88 | 81 | 1009.2 |
| 20260509060023 | 14 | 164 | 0.0 | 3.2 | 8.10 | 22.20 | 8.10 | 81 | 1009.3 |